Location: Augirein
(42.9320°N, 0.9181°E)
Time: 14:56:22
(UTC+00:00)

ADEOS II - Pass Details

Date: 20 June 2021
Orbit: 799 x 800 km, 98.6° (Epoch: 01 August)

Event Time Altitude Azimuth Distance (km) Brightness Sun altitude
Rises 01:26:33 0° 22° (NNE) 3,319 6.9 -20.6°
Reaches altitude 10° 01:29:05 10° 31° (NNE) 2,384 5.7 -20.4°
Maximum altitude 01:33:54 35° 97° (E) 1,272 3.2 -20.0°
Enters shadow 01:36:50 20° 149° (SSE) 1,771 3.6 -19.8°
